Location: Ambrosina
(19.9365°S, 43.9833°W)
Time: 02:03:48
(UTC+00:00)

ISS - Pass Details

Date: 11 May 2021
Orbit: 417 x 422 km, 51.6° (Epoch: 20 June)

Event Time Altitude Azimuth Distance (km) Brightness Sun altitude
Rises 21:11:40 0° 218° (SW) 2,374 0.4 -10.4°
Reaches altitude 10° 21:13:47 10° 217° (SW) 1,504 -0.7 -10.9°
Maximum altitude 21:17:10 83° 129° (SE) 425 -3.9 -11.7°
Drops below altitude 10° 21:20:30 10° 40° (NE) 1,488 -1.2 -12.5°
Enters shadow 21:22:24 - 40° (NE) 2,270 -0.3 -12.9°
